This demonstration page uses our WeatherBlox Daily Observations layout. Learn more.

Left ArrowRight Arrow

39.95238, -75.16362

Hourly Observations for December 9, 2022

Temp ( °F °C ) Dew Point ( °F °C ) Humidity (%) Winds ( mph kmh ) Pressure ( in mb ) Visibility ( mi km ) Precip ( " mm )
12:54 am 00:54 Mostly Cloudy 42 5.6 31 -0.6 64 64 N 9 15 30.27 1025 10 16 0.00 0.00
1:54 am 01:54 Partly Cloudy 41 5 31 -0.6 67 67 N 9 15 30.26 1025 10 16 0.00 0.00
2:54 am 02:54 Mostly Clear 40 4.4 31 -0.6 70 70 N 8 13 30.28 1025 10 16 0.00 0.00
3:54 am 03:54 Clear 39 3.9 31 -0.6 72 72 N 9 15 30.27 1025 10 16 0.00 0.00
4:54 am 04:54 Mostly Clear 39 3.9 31 -0.6 72 72 N 8 13 30.28 1025 10 16 0.00 0.00
5:54 am 05:54 Mostly Clear 37 2.8 30 -1.1 75 75 N 7 11 30.29 1026 10 16 0.00 0.00
6:54 am 06:54 Clear 36 2.2 30 -1.1 79 79 N 8 13 30.29 1026 10 16 0.00 0.00
7:54 am 07:54 Sunny 37 2.8 30 -1.1 75 75 N 6 9 30.31 1026 10 16 0.00 0.00
8:54 am 08:54 Sunny 39 3.9 30 -1.1 70 70 N 9 15 30.31 1026 10 16 0.00 0.00
9:54 am 09:54 Sunny 41 5 29 -1.7 62 62 NNE 12 19 30.32 1027 10 16 0.00 0.00
10:54 am 10:54 Sunny 43 6.1 28 -2.2 55 55 NE 9 15 30.30 1026 10 16 0.00 0.00
11:54 am 11:54 Sunny 45 7.2 27 -2.8 49 49 NNE 9 15 30.28 1025 10 16 0.00 0.00
12:54 pm 12:54 Sunny 46 7.8 27 -2.8 47 47 N 9 15 30.27 1025 10 16 0.00 0.00
1:54 pm 13:54 Sunny 47 8.3 26 -3.3 44 44 N 9 15 30.26 1025 10 16 0.00 0.00
2:54 pm 14:54 Sunny 47 8.3 28 -2.2 47 47 NNW 8 13 30.26 1025 10 16 0.00 0.00
3:54 pm 15:54 Sunny 46 7.8 26 -3.3 45 45 NNE 10 17 30.26 1025 10 16 0.00 0.00
4:54 pm 16:54 Clear 44 6.7 26 -3.3 49 49 NNE 9 15 30.26 1025 10 16 0.00 0.00
5:54 pm 17:54 Clear 42 5.6 26 -3.3 53 53 N 7 11 30.26 1025 10 16 0.00 0.00
6:54 pm 18:54 Clear 41 5 26 -3.3 55 55 N 5 7 30.28 1025 10 16 0.00 0.00
7:54 pm 19:54 Clear 39 3.9 25 -3.9 57 57 N 3 6 30.28 1026 10 16 0.00 0.00
8:54 pm 20:54 Clear 38 3.3 25 -3.9 59 59 NNW 5 7 30.29 1026 10 16 0.00 0.00
9:54 pm 21:54 Clear 36 2.2 24 -4.4 62 62 NNW 5 7 30.30 1026 10 16 0.00 0.00
10:54 pm 22:54 Clear 37 2.8 25 -3.9 61 61 N 9 15 30.30 1026 10 16 0.00 0.00
11:54 pm 23:54 Clear 35 1.7 23 -5 61 61 N 6 9 30.30 1026 10 16 0.00 0.00

Powered by AerisWeather